Weather History for KSLK - March, 2012

Change the Weather History Date:

Tuesday, March 27, 2012

  Actual Average Record
Temperature  
Mean Temperature 26 °F 29 °F  
Max Temperature 39 °F 41 °F 69 °F (1993)
Min Temperature 13 °F 18 °F -16 °F (2014)
Degree Days  
Heating Degree Days 39 36  
Month to date heating degree days 752 1119  
Since 1 July heating degree days 6500 7824  
Cooling Degree Days 0 0  
Month to date cooling degree days 0 0  
Year to date cooling degree days 0 0  
Moisture  
Dew Point -1 °F    
Average Humidity 36    
Maximum Humidity 58    
Minimum Humidity 13    
Precipitation  
Precipitation T in 0.09 in 1.40 in (1955)
Month to date precipitation 1.39 1.92  
Year to date precipitation 5.08 5.66  
Sea Level Pressure  
Sea Level Pressure 30.21 in    
Wind  
Wind Speed 4 mph (NNW)    
Max Wind Speed 13 mph    
Max Gust Speed 18 mph    
Visibility 10 miles    
Events      
T = Trace of Precipitation, MM = Missing Value Source: NWS Daily Summary

Daily Weather History Graph

Daily Weather History Graph

Search for Another Location

Airport or City:

Trip Planner

Search our weather history database for the weather conditions in past years. The results will help you decide how hot, cold, wet, or windy it might be!

Date:

Astronomy

Mar. 27, 2012 Rise Set
Actual Time 6:46 AM EDT 7:18 PM EDT
Civil Twilight 6:17 AM EDT 7:47 PM EDT
Nautical Twilight 5:42 AM EDT 8:22 PM EDT
Astronomical Twilight 5:07 AM EDT 8:58 PM EDT
Moon 9:03 AM EDT (3/27) No Moon Set
Length of Visible Light 13h 30m
Length of Day
12h 32m
Waxing Crescent, 22% of the Moon is Illuminated
Mar 27
Waxing Crescent
Mar 30
First Quarter
Apr 6
Full
Apr 13
Last Quarter
Apr 21
New

Hourly Weather History & Observations

Time (EDT) Temp. Windchill Dew Point Humidity Pressure Visibility Wind Dir Wind Speed Gust Speed Precip Events Conditions
12:51 AM 19.0 °F 11.1 °F -2.0 °F 40% 30.20 in 10.0 mi Variable 5.8 mph - N/A   Clear
1:51 AM 18.0 °F 12.7 °F -0.9 °F 44% 30.21 in 10.0 mi Variable 3.5 mph - N/A   Clear
2:51 AM 16.0 °F - -0.9 °F 47% 30.21 in 10.0 mi Calm Calm - N/A   Clear
3:51 AM 16.0 °F 6.3 °F -0.9 °F 47% 30.22 in 10.0 mi Variable 6.9 mph - N/A   Clear
4:51 AM 15.1 °F 7.7 °F -0.9 °F 49% 30.25 in 10.0 mi North 4.6 mph - N/A   Clear
5:51 AM 14.0 °F 6.5 °F -0.9 °F 52% 30.26 in 10.0 mi North 4.6 mph - N/A   Clear
6:51 AM 12.9 °F 5.2 °F -0.0 °F 56% 30.30 in 10.0 mi Variable 4.6 mph - N/A   Clear
7:51 AM 15.8 °F 8.6 °F -0.4 °F 49% 30.24 in 10.0 mi Variable 4.6 mph - N/A   Clear
8:51 AM 17.1 °F 8.7 °F 1.0 °F 50% 30.32 in 10.0 mi Variable 5.8 mph - N/A   Clear
9:51 AM 19.9 °F 13.4 °F -0.0 °F 42% 30.34 in 10.0 mi NNE 4.6 mph - N/A   Clear
10:51 AM 24.1 °F 17.0 °F -2.0 °F 32% 30.33 in 10.0 mi West 5.8 mph - N/A   Clear
11:51 AM 28.0 °F 20.0 °F -6.0 °F 23% 30.31 in 10.0 mi North 8.1 mph 16.1 mph N/A   Clear
12:51 PM 30.2 °F 24.3 °F -5.8 °F 21% 30.22 in 10.0 mi NNE 5.8 mph - N/A   Clear
1:51 PM 34.0 °F 28.0 °F -8.0 °F 16% 30.26 in 10.0 mi Variable 6.9 mph - N/A   Clear
2:51 PM 37.0 °F 33.3 °F -6.0 °F 16% 30.22 in 10.0 mi Variable 4.6 mph - N/A   Clear
3:51 PM 37.0 °F 31.6 °F -9.0 °F 14% 30.21 in 10.0 mi Variable 6.9 mph - N/A   Clear
4:51 PM 37.4 °F 32.1 °F -7.6 °F 15% 30.14 in 10.0 mi NW 6.9 mph - N/A   Clear
5:51 PM 37.4 °F 33.8 °F -5.8 °F 16% 30.13 in 10.0 mi NW 4.6 mph - N/A   Clear
6:51 PM 34.0 °F 31.0 °F -8.0 °F 16% 30.19 in 10.0 mi WSW 3.5 mph - N/A   Clear
7:51 PM 28.0 °F - 1.0 °F 31% 30.17 in 10.0 mi Calm Calm - N/A   Clear
8:51 PM 26.6 °F - 8.6 °F 47% 30.07 in 10.0 mi Calm Calm - N/A   Clear
9:51 PM 28.9 °F - 12.0 °F 49% 30.12 in 10.0 mi Calm Calm - N/A   Overcast
10:51 PM 30.0 °F - 10.0 °F 43% 30.13 in 10.0 mi Calm Calm - N/A   Overcast
11:51 PM 30.0 °F 25.2 °F 8.1 °F 40% 30.05 in 10.0 mi South 4.6 mph - N/A   Overcast